Regional Weather Roundup
Issued by NWS

Home | Current Version | Previous Version | Graphics & Text | Print | Product List | Glossary On
Versions: 1 2 3 4 5 6 7 8 9 10 11 12 13 14 15 16 17 18 19 20 21 22 23 24 25 26 27 28 29 30 31 32 33 34 35 36 37 38 39 40 41 42 43 44 45 46 47 48 49 50
000
ASUS45 KCYS 221210
RWRWY

WYOMING REGIONAL WEATHER ROUNDUP
NATIONAL WEATHER SERVICE CHEYENNE WY
600 AM MDT FRI AUG 22 2014

NOTE:  "FAIR" INDICATES FEW OR NO CLOUDS BELOW 12,000 FEET
WITH NO SIGNIFICANT WEATHER AND/OR OBSTRUCTIONS TO VISIBILITY.

WYZ001-221300-
YELLOWSTONE NATIONAL PARK

CITY           SKY/WX    TMP DP  RH WIND       PRES   REMARKS
LK YELLOWSTONE   N/A     43  42  97 NW3       30.24S
6HR MIN TEMP:  43; 6HR MAX TEMP:  45; 6HR PCP:  0.11;

W YELLOWSTONE  NOT AVBL

$$
WYZ002>013-054>058-071-098>099-221300-
NORTHERN WYOMING

CITY           SKY/WX    TMP DP  RH WIND       PRES   REMARKS
JACKSON        CLOUDY    48  48 100 S3        30.18S
CODY           CLOUDY    52  52 100 NE6       30.13S
GREYBULL       LGT RAIN  56  55  97 SE3       30.08F
6HR MIN TEMP:  56; 6HR MAX TEMP:  59;

WORLAND        MOCLDY    54  47  77 SE8       30.09F
6HR MIN TEMP:  51; 6HR MAX TEMP:  60; 6HR PCP: TRACE;

SHERIDAN       CLOUDY    58  54  86 NW3       30.10S
6HR MIN TEMP:  58; 6HR MAX TEMP:  59;

BUFFALO        CLOUDY    56  54  93 CALM      30.14F
6HR MIN TEMP:  55; 6HR MAX TEMP:  56;

GILLETTE       CLOUDY    59  55  87 CALM      30.12R
6HR MIN TEMP:  56; 6HR MAX TEMP:  59;

HULETT         CLOUDY    59  57  94 MISG      30.12
NEWCASTLE      FAIR      54  52  94 N3        30.08

$$
WYZ014>020-022>026-101>103-221300-
CENTRAL WYOMING

CITY           SKY/WX    TMP DP  RH WIND       PRES   REMARKS
BIG PINEY      MOCLDY    47  44  90 N9        30.21S
6HR MIN TEMP:  47; 6HR MAX TEMP:  52; 6HR PCP:  0.09;

PINEDALE       LGT RAIN  46  46 100 NW6       30.21S
DUBOIS         CLOUDY    45  41  87 W5        30.19F
LANDER         MOCLDY    53  47  79 CALM      30.12F
6HR MIN TEMP:  51; 6HR MAX TEMP:  60; 6HR PCP:  0.01;

RIVERTON       MOCLDY    53  50  89 N8        30.12F
6HR MIN TEMP:  52; 6HR MAX TEMP:  61; 6HR PCP:  0.01;

CASPER         PTCLDY    49  47  93 SW3       30.16R
6HR MIN TEMP:  47; 6HR MAX TEMP:  59;

DOUGLAS        CLOUDY    54  52  93 N5        30.16R
6HR MIN TEMP:  51; 6HR MAX TEMP:  64;


$$
WYZ021-027>030-104>119-221300-
SOUTHERN WYOMING

CITY           SKY/WX    TMP DP  RH WIND       PRES   REMARKS
EVANSTON       MOCLDY    49  48  97 N7        30.19S
6HR MIN TEMP:  49; 6HR MAX TEMP:  56;

KEMMERER       CLOUDY    50  45  81 CALM      30.22R
FORT BRIDGER     N/A     49  46  87 NE3       30.22S
ROCK SPRINGS   PTCLDY    49  41  74 SW5       30.19S
6HR MIN TEMP:  48; 6HR MAX TEMP:  58;

DIXON          FAIR      52  45  77 NE3       30.23S
RAWLINS        MOCLDY    45  42  89 CALM      30.21R
6HR MIN TEMP:  43; 6HR MAX TEMP:  52;

SARATOGA       FAIR      50  45  81 MISG      30.22S
LARAMIE        MOCLDY    51  44  77 S5        30.24S
6HR MIN TEMP:  50; 6HR MAX TEMP:  55;

CHEYENNE       LGT RAIN  60  50  69 S6        30.21R
6HR MIN TEMP:  58; 6HR MAX TEMP:  62; 6HR PCP: TRACE;

TORRINGTON     MOCLDY    58  53  84 CALM      30.10R
6HR MIN TEMP:  57; 6HR MAX TEMP:  66;

PINE BLUFFS    CLOUDY    63  52  67 S7        30.17R

$$



USA.gov is the U.S. government's official web portal to all federal, state and local government web resources and services.